Home > Weather > Kerpen > Past weeks

Flag for Germany Past Weather in Kerpen, North Rhine-Westphalia, Germany — Yesterday and Last 2 Weeks

Now
79 °F

Broken clouds.


Feels Like: 80 °F
Forecast: 63 / 76 °F
Wind: 14 mph from Northwest

Location: Noervenich

Current Time: Jul 25, 2016 at 5:57:20 PM

Latest Report: Jul 25, 2016 at 5:20 PM


Visibility: N/A

Pressure: 30.09 "Hg

Humidity: 58%

Dew Point: 63 °F

Location of KerpenLocation

Past Weather in Kerpen — Graph

°F

Kerpen Temperature Yesterday

Maximum temperature yesterday: 81 °F (at 5:20 PM)
Minimum temperature yesterday: 64 °F (at 2:20 AM)
Average temperature yesterday: 71 °F

High & Low Weather Summary for the Past Weeks

 TemperatureHumidityPressure
High95 °F (Jul 20, 3:20 PM)100% (Jul 24, 3:20 AM)30.33 "Hg (Jul 24, 3:20 AM)
Low50 °F (Jul 14, 3:20 AM)26% (Jul 20, 3:20 PM)29.77 "Hg (Jul 10, 9:20 PM)
Average69 °F70%30.07 "Hg
* Reported Jul 10 4:20 PM — Jul 25 4:20 PM, Kerpen, Weather by CustomWeather, © 2016

Note: Actual official high and low records may vary slightly from our data, if they occured in-between our weather recording intervals... More about our weather records

Advertising

Kerpen Weather History for the Previous 24 Hours

Scroll right to see more
 ConditionsComfort  
Time TempWeatherWind HumidityBarometerVisibility
4:20 PM
Mon, Jul 25
79 °FBroken clouds.12 mph54%30.09 "HgN/A
3:20 PM79 °FBroken clouds.10 mph54%30.09 "HgN/A
2:20 PM79 °FBroken clouds.9 mph54%30.09 "HgN/A
1:20 PM77 °FBroken clouds.8 mph54%30.09 "HgN/A
12:20 PM75 °FPartly sunny.9 mph61%30.09 "HgN/A
11:20 AM75 °FBroken clouds.8 mph57%30.12 "HgN/A
10:20 AM73 °FPartly sunny.8 mph61%30.12 "HgN/A
9:20 AM72 °FBroken clouds.8 mph61%30.12 "HgN/A
8:20 AM68 °FBroken clouds.7 mph73%30.12 "HgN/A
7:20 AM66 °FBroken clouds.5 mph78%30.09 "HgN/A
6:20 AM64 °FPassing clouds.5 mph83%30.09 "HgN/A
5:20 AM66 °FPartly cloudy.6 mph83%30.09 "HgN/A
4:20 AM64 °FPassing clouds.9 mph88%30.09 "HgN/A
3:20 AM66 °FPassing clouds.7 mph83%30.09 "HgN/A
2:20 AM66 °FPassing clouds.7 mph83%30.09 "HgN/A
1:20 AM70 °FPassing clouds.6 mph78%30.09 "HgN/A
12:20 AM72 °FPassing clouds.8 mph73%30.09 "HgN/A
11:20 PM
Sun, Jul 24
72 °FPassing clouds.8 mph73%30.09 "HgN/A
10:20 PM72 °FScattered clouds.5 mph69%30.09 "HgN/A
9:20 PM73 °FScattered clouds.2 mph69%30.07 "HgN/A
8:20 PM77 °FScattered clouds.2 mph61%30.07 "HgN/A
7:20 PM81 °FScattered clouds.2 mph45%30.07 "HgN/A
6:20 PM81 °FPassing clouds.5 mph48%30.07 "HgN/A
5:20 PM81 °FPassing clouds.5 mph48%30.09 "HgN/A
Weather by CustomWeather, © 2016

See weather overviewHow to use our weather pages